SITRO-AIS 34

Last updated on Thu May 08 2025 00:03:41 GMT+0000 (Coordinated Universal Time)

1 59058U 24039H 25127.56310509 .05719890 25330-5 11409-2 0 9995 2 59058 97.3984 104.1920 0008424 202.8306 157.2616 16.31437360 66829
UTC large
Height (km)
Speed (km/s)
/
Latitude / Longitude
Inclination (degrees)
Orbital Period (minutes)
Azimuth
Elevation
Range (km)
Doppler Factor

Next 0 passes for location: London (51.5072 / 0.1276)

Sorry there are no passes over London.
SITRO-AIS 34